Weather History for 63820 - October, 2012

Change the Weather History Date:

Sunday, October 14, 2012

  Actual Average Record
Temperature  
Mean Temperature 78 °F -  
Max Temperature 84 °F 88 °F - ()
Min Temperature 73 °F 71 °F - ()
Cooling Degree Days 14    
Growing Degree Days 28 (Base 50)    
Moisture  
Dew Point 71 °F    
Average Humidity 80    
Maximum Humidity 94    
Minimum Humidity 62    
Precipitation  
Precipitation 0.00 in 0.14 in - ()
Sea Level Pressure  
Sea Level Pressure 29.96 in    
Wind  
Wind Speed 5 mph ()    
Max Wind Speed 12 mph    
Max Gust Speed -    
Visibility 7.3 miles    
Events      
T = Trace of Precipitation, MM = Missing Value Source: Averaged Metar Reports

Daily Weather History Graph

Daily Weather History Graph

Search for Another Location

Airport or City:

Trip Planner

Search our weather history database for the weather conditions in past years. The results will help you decide how hot, cold, wet, or windy it might be!

Date:

Astronomy

Oct. 14, 2012 Rise Set
Actual Time 6:01 AM EAT 6:13 PM EAT
Civil Twilight 5:40 AM EAT 6:34 PM EAT
Nautical Twilight 5:16 AM EAT 6:58 PM EAT
Astronomical Twilight 4:52 AM EAT 7:22 PM EAT
Moon 4:48 AM EAT (10/14) 5:16 PM EAT (10/14)
Length of Visible Light 12h 53m
Length of Day
12h 11m
Waning Crescent, 2% of the Moon is Illuminated
Oct 14
Waning Crescent
Oct 15
New
Oct 22
First Quarter
Oct 29
Full
Nov 7
Last Quarter

Hourly Weather History & Observations

Time (EAT) Temp. Heat Index Dew Point Humidity Pressure Visibility Wind Dir Wind Speed Gust Speed Precip Events Conditions
1:00 AM 77.0 °F - 73.4 °F 89% 29.95 in 6.2 mi SSE 3.5 mph - N/A   Partly Cloudy
2:00 AM 75.2 °F - 73.4 °F 94% 29.92 in 6.2 mi WNW 3.5 mph - N/A   Partly Cloudy
3:00 AM 75.2 °F - 73.4 °F 94% 29.92 in 6.2 mi Calm Calm - N/A   Partly Cloudy
4:00 AM 75.2 °F - 73.4 °F 94% 29.92 in 6.2 mi SW 5.8 mph - N/A   Partly Cloudy
5:00 AM 75.2 °F - 71.6 °F 89% 29.95 in 6.2 mi SSW 5.8 mph - N/A   Partly Cloudy
6:00 AM 75.2 °F - 73.4 °F 94% 29.95 in 6.2 mi SW 5.8 mph - N/A   Mostly Cloudy
7:00 AM 73.4 °F - 69.8 °F 88% 29.98 in 6.2 mi South 3.5 mph - N/A   Mostly Cloudy
8:00 AM 77.0 °F - 73.4 °F 89% 30.01 in 6.2 mi SSW 8.1 mph - N/A   Scattered Clouds
8:30 AM 77.0 °F - 73.4 °F 89% 30.01 in 6.2 mi SSW 9.2 mph - N/A   Mostly Cloudy
9:00 AM 78 °F - 73 °F 79% 30.02 in 19 mi South 6.9 mph - -   Mostly Cloudy
10:00 AM 80.6 °F 84.6 °F 71.6 °F 74% 30.01 in 6.2 mi South 10.4 mph - N/A   Mostly Cloudy
11:00 AM 82.4 °F 87.2 °F 71.6 °F 70% 30.01 in 6.2 mi SSE 10.4 mph - N/A   Mostly Cloudy
12:00 PM 82.4 °F 86.3 °F 69.8 °F 66% 29.98 in 6.2 mi SSE 8.1 mph - N/A   Mostly Cloudy
1:00 PM 82.4 °F 85.4 °F 68.0 °F 62% 29.95 in 6.2 mi SE 10.4 mph - N/A   Mostly Cloudy
2:00 PM 82.4 °F 87.2 °F 71.6 °F 70% 29.95 in 6.2 mi South 9.2 mph - N/A   Mostly Cloudy
3:00 PM 82.4 °F 86.3 °F 69.8 °F 66% 29.92 in 6.2 mi SE 11.5 mph - N/A   Scattered Clouds
4:00 PM 82.4 °F 86.3 °F 69.8 °F 66% 29.92 in 6.2 mi SSE 10.4 mph - N/A   Mostly Cloudy
5:00 PM 80.6 °F 83.9 °F 69.8 °F 70% 29.92 in 6.2 mi SSE 11.5 mph - N/A   Mostly Cloudy
6:00 PM 78.8 °F - 69.8 °F 74% 29.92 in 6.2 mi SSE 9.2 mph - N/A   Scattered Clouds
8:00 PM 77.0 °F - 69.8 °F 78% 29.95 in 6.2 mi South 3.5 mph - N/A   Partly Cloudy
9:00 PM 77 °F - 70 °F 73% 29.97 in 19 mi South 3.5 mph - -   Scattered Clouds
9:00 PM 77.0 °F - 69.8 °F 78% 29.98 in 6.2 mi South 3.5 mph - N/A   Partly Cloudy
10:00 PM 77.0 °F - 69.8 °F 78% 29.98 in 6.2 mi SSW 4.6 mph - N/A   Partly Cloudy
11:00 PM 75.2 °F - 71.6 °F 89% 29.98 in 6.2 mi SSW 3.5 mph - N/A   Partly Cloudy